Starlink 30441

operational
NORAD ID: 57869 Int'l Des: 2023-144 Owner: SPXS Country: US Constellation: starlink
LEOCIRCULAR

Über Starlink 30441

Beschreibung wird geladen...

Live-Position

3D-Globus wird geladen...

Nächste Überflüge

Höhenverlauf

Altitude vs Time

uPlot chart will show altitude changes over time

Zweizeiliger Elementsatz

1 57869U 23144F 25306.17518089 -.00000369 00000-0 -12277-4 0 9997
2 57869 43.0043 260.7774 0001283 273.1694 86.9001 15.02525002118387
Epoch: 2. Nov. 2025 • Age: 40 hours

Aktueller Status

Höhe 563.1 km
Geschwindigkeit 7.59 km/s
Subsatellitenpunkt 43.09°N, 12.84°W
Startdatum 16. Sept. 2023
Alter 2.1 years
Typ internet

Technische Details

Klassifizierung Payload
Masse 730.00 kg
Trockenmasse 700.00 kg
Gesamtmasse 730.00 kg
Länge 0.30 m
Durchmesser 4.10 m
Spannweite 29.00 m
Form Box + pan
Hersteller SPXS
Bus-Typ Starlink V2M
Phasenstatus In Orbit
Besitzer/Staat SPXS/US

Große Konstellationen

Loading constellations...